Regional Weather Roundup
Issued by NWS Goodland, KS

Home | Current Version | Previous Version | Graphics & Text | Print | Product List | Glossary On
Versions: 1 2 3 4 5 6 7 8 9 10 11 12 13 14 15 16 17 18 19 20 21 22 23 24 25 26 27 28 29 30 31 32 33 34 35 36 37 38 39 40 41 42 43 44 45 46 47 48 49 50
000
ASUS43 KGLD 190208
RWRGLD

GOODLAND FORECAST AREA HOURLY WEATHER ROUNDUP
NATIONAL WEATHER SERVICE GOODLAND KS
800 PM MDT WED OCT 18 2017

...OFFICIAL OBSERVATIONS...

CITY           SKY/WX    TMP DP  RH WIND       PRES   REMARKS
GOODLAND KS    CLEAR     53  33  46 E9        30.11R
HILL CITY KS   CLEAR     58  39  49 N10       30.08R
IMPERIAL NEB   CLEAR     49  32  52 SE7       30.11R
MCCOOK NEB     CLEAR     55  35  47 NE6       30.11R
AKRON CO       CLEAR     53  23  31 SE9       30.13R
BURLINGTON CO  CLEAR     58  29  33 E10       30.13R
LIMON CO       CLEAR     51  21  30 S7        30.18R
$$

...UNOFFICIAL OBSERVATIONS...

CITY           SKY/WX    TMP DP  RH WIND       PRES   REMARKS
LENORA KS        N/A     55  32  41 MISG        N/A
NORTON KS      CLEAR     50  32  50 N8        30.08R
SHARON SPRINGS   N/A     54  31  40 CALM        N/A
TRENTON NEB      N/A     55  32  41 E6          N/A
$$




USA.gov is the U.S. government's official web portal to all federal, state and local government web resources and services.